"Pseudo-MPEC" for ZLB37D3

Created 2018 Jun 16 2:19:13 UT using Find_Orb

Click here for an explanation of pseudo-MPECs

 
 Astrometry: 
     ZLB37D3  C2018 06 14.34760 20 38 34.13 -01 42 15.9          20.1 GUNEOCPG96
     ZLB37D3  C2018 06 14.35242 20 38 34.54 -01 42 11.5                UNEOCPG96
     ZLB37D3  C2018 06 14.36203 20 38 35.34 -01 42 03.3          19.6 GUNEOCPG96
     ZLB37D3  C2018 06 14.42657 20 38 40.68 -01 41 08.2          20.1 GUNEOCPI52
     ZLB37D3  C2018 06 14.43484 20 38 41.35 -01 41 01.6          20.2 GUNEOCPI52
     ZLB37D3  C2018 06 14.43835 20 38 41.64 -01 40 58.1          20.0 GUNEOCPI52

Station data:
(G96) Mt. Lemmon Survey  (N32.442754 W110.788720)  US/Arizona.  Observers B.
   M. Africano, E. J. Christensen, D. C. Fuls, A. R. Gibbs, A. D. Grauer, J.
   A. Johnson, R. A. Kowalski, S. M. Larson, G. J. Leonard, R. L. Seaman, F.
   C. Shelly. 1.5-m reflector + 10K CCD.
(I52) Steward Observatory, Mt. Lemmon Station  (N32.442547 W110.788920)
   US/Arizona.  Observers B. M. Africano, E. J. Christensen, D. C. Fuls, A.
   R. Gibbs, A. D. Grauer, J. A. Johnson, R. A. Kowalski, S. M. Larson, G. J.
   Leonard, R. L. Seaman, F. C. Shelly. 1.0-m reflector + CCD.

Orbital elements:  ZLB37D3
   Perihelion 2018 Jun 11.770446 +/- 38.9 TT = 18:29:26 (JD 2458281.270446)
Epoch 2018 Jun 14.0 TT = JDT 2458283.5   Earth MOID: 0.3438   Ma: 0.0229
M   0.63570 +/- 39                  (J2000 ecliptic)          AutoNEOCP
n   0.28512781 +/- 0.387            Peri.   78.22513 +/- 100
a   2.28617599 +/- 2.04             Node   196.75893 +/- 47
e   0.4125003 +/- 0.249             Incl.    5.38878 +/- 24
P   3.46                   H 20.0   G  0.15   U 12.1  SR
q 1.34312767 +/- 0.508    Q 3.22922431 +/- 31.2
From 6 observations 2018 June 14 (2.2 hr); mean residual 0".14
Residuals in arcseconds: 
180614 G96  .07-  .19-    180614 G96  .03+  .10+    180614 I52  .06-  .33-    
180614 G96  .04+  .10+    180614 I52  .10+  .13+    180614 I52  .04-  .18+    

Ephemerides (geocentric):
Date (UTC) HH   RA              Dec         delta   r     elong  mag " sig PA
---- -- -- --  -------------   -----------  ------ ------ -----  --- ---- ---
2018 06 16 02  20 41 05.070   -01 17 50.52  .44138 1.3438 130.2 20.3 1518 159
2018 06 16 03  20 41 08.615   -01 17 16.36  .44128 1.3438 130.2 20.3 1653 159
2018 06 16 04  20 41 12.156   -01 16 42.23  .44119 1.3438 130.2 20.3 1805 159
2018 06 16 05  20 41 15.693   -01 16 08.14  .44109 1.3438 130.3 20.3 1977 159
2018 06 16 06  20 41 19.225   -01 15 34.08  .44100 1.3438 130.3 20.3 2173 158
2018 06 16 07  20 41 22.753   -01 15 00.06  .44090 1.3438 130.3 20.3 2400 158
2018 06 16 08  20 41 26.277   -01 14 26.08  .44081 1.3438 130.3 20.3 2666 158
2018 06 16 09  20 41 29.796   -01 13 52.13  .44072 1.3438 130.3 20.3 2981 158
2018 06 16 10  20 41 33.311   -01 13 18.22  .44062 1.3439 130.4 20.3 3361 158
2018 06 16 11  20 41 36.821   -01 12 44.34  .44053 1.3439 130.4 20.3 3830 158
2018 06 16 12  20 41 40.328   -01 12 10.51  .44043 1.3439 130.4 20.3 4422 158
2018 06 16 13  20 41 43.829   -01 11 36.70  .44034 1.3439 130.4 20.3 5197 157
2018 06 16 14  20 41 47.327   -01 11 02.94  .44025 1.3439 130.4 20.3 6255 157
2018 06 16 15  20 41 50.820   -01 10 29.21  .44015 1.3439 130.5 20.3 7786 157
2018 06 16 16  20 41 54.309   -01 09 55.52  .44006 1.3439 130.5 20.3 170' 158
2018 06 16 17  20 41 57.793   -01 09 21.86  .43996 1.3440 130.5 20.3 240' 158
2018 06 16 18  20 42 01.273   -01 08 48.24  .43987 1.3440 130.5 20.3 375' 160
2018 06 16 19  20 42 04.754   -01 08 14.62  .43978 1.3440 130.5 20.3 606' 165
2018 06 16 20  20 42 08.240   -01 07 40.95  .43968 1.3440 130.6 20.3 813' 170
2018 06 16 21  20 42 11.732   -01 07 07.22  .43959 1.3440 130.6 20.3 937' 172
2018 06 16 22  20 42 15.229   -01 06 33.44  .43950 1.3440 130.6 20.3  18d 173
2018 06 16 23  20 42 18.733   -01 05 59.60  .43940 1.3440 130.6 20.3  20d 173
2018 06 17 00  20 42 22.243   -01 05 25.71  .43931 1.3440 130.6 20.3  22d 175
2018 06 17 01  20 42 25.758   -01 04 51.77  .43922 1.3441 130.7 20.3  23d 176
2018 06 17 02  20 42 29.280   -01 04 17.78  .43912 1.3441 130.7 20.3  24d 176
2018 06 17 03  20 42 32.807   -01 03 43.73  .43903 1.3441 130.7 20.3  24d 177
2018 06 17 04  20 42 36.340   -01 03 09.62  .43893 1.3441 130.7 20.3  24d 177
2018 06 17 05  20 42 39.875   -01 02 35.51  .43884 1.3441 130.7 20.3  24d 177
2018 06 17 06  20 42 43.405   -01 02 01.42  .43874 1.3441 130.8 20.3  25d 178
2018 06 17 07  20 42 46.931   -01 01 27.38  .43865 1.3441 130.8 20.3  25d 178
2018 06 17 08  20 42 50.453   -01 00 53.37  .43855 1.3441 130.8 20.3  25d 178
2018 06 17 09  20 42 53.970   -01 00 19.40  .43846 1.3441 130.8 20.3  25d 178
2018 06 17 10  20 42 57.484   -00 59 45.47  .43836 1.3442 130.8 20.3  25d 178
2018 06 17 11  20 43 00.993   -00 59 11.57  .43827 1.3442 130.9 20.3  25d 178
2018 06 17 12  20 43 04.497   -00 58 37.71  .43817 1.3442 130.9 20.3  25d 178
2018 06 17 13  20 43 07.998   -00 58 03.89  .43808 1.3442 130.9 20.3  25d 178
2018 06 17 14  20 43 11.494   -00 57 30.10  .43799 1.3442 130.9 20.3  26d 177
2018 06 17 15  20 43 14.986   -00 56 56.35  .43789 1.3442 130.9 20.3  27d 177
2018 06 17 16  20 43 18.473   -00 56 22.64  .43780 1.3442 131.0 20.3  27d 176
2018 06 17 17  20 43 21.957   -00 55 48.97  .43771 1.3442 131.0 20.3  29d 176
2018 06 17 18  20 43 25.436   -00 55 15.33  .43761 1.3442 131.0 20.3  30d 176
2018 06 17 19  20 43 28.911   -00 54 41.73  .43752 1.3443 131.0 20.3  31d 176
2018 06 17 20  20 43 32.381   -00 54 08.17  .43743 1.3443 131.0 20.3  32d 176
2018 06 17 21  20 43 35.847   -00 53 34.64  .43733 1.3443 131.0 20.3  33d 177
2018 06 17 22  20 43 39.309   -00 53 01.16  .43724 1.3443 131.1 20.3  33d 177
2018 06 17 23  20 43 42.767   -00 52 27.71  .43715 1.3443 131.1 20.3  34d 177
2018 06 18 00  20 43 46.220   -00 51 54.29  .43706 1.3443 131.1 20.3  34d 177
2018 06 18 01  20 43 49.669   -00 51 20.92  .43696 1.3443 131.1 20.3  34d 178